Location: Caltech
(34.1382°N, 118.1253°W)
Time: 03:40:12
(UTC-07:00)

FENGYUN 3A - Visible Passes

Search period start: 03 August 2015 00:00
Search period end: 13 August 2015 00:00
Orbit: 819 x 834 km, 98.5° (Epoch: 02 August)

Date Brightness Start Highest point End Pass type
(mag) Time Alt. Az. Time Alt. Az. Time Alt. Az.
03 Aug 3.8 21:24:16 16° S 21:28:37 73° WSW 21:34:00 10° NNW visible
04 Aug 3.6 21:05:16 14° SSE 21:09:49 75° ENE 21:15:12 10° N visible
04 Aug 6.3 22:49:25 10° WSW 22:50:44 11° W 22:51:37 10° W visible
05 Aug 4.0 20:46:18 12° SE 20:51:04 49° ENE 20:56:14 10° N visible
05 Aug 6.0 22:28:04 10° SW 22:31:38 17° W 22:34:58 10° NW visible
06 Aug 4.5 20:27:40 10° SE 20:32:21 32° ENE 20:37:06 10° N visible
06 Aug 5.4 22:08:49 13° SSW 22:12:38 26° W 22:17:01 10° NW visible
07 Aug 5.0 20:09:45 10° ESE 20:13:40 22° ENE 20:17:44 10° NNE visible
07 Aug 4.7 21:49:50 16° SSW 21:53:41 40° W 21:58:42 10° NNW visible
08 Aug 4.0 21:30:51 18° S 21:34:48 62° W 21:40:07 10° NNW visible
09 Aug 3.6 21:11:53 18° SSE 21:15:59 86° E 21:21:23 10° NNW visible
10 Aug 3.8 20:52:55 15° SSE 20:57:13 57° ENE 21:02:28 10° N visible
10 Aug 6.1 22:34:52 10° SW 22:37:55 15° W 22:40:39 10° WNW visible
11 Aug 4.3 20:33:56 11° SE 20:38:29 37° ENE 20:43:24 10° N visible
11 Aug 5.6 22:15:26 13° SW 22:18:52 23° W 22:22:57 10° NW visible
12 Aug 4.8 20:15:34 10° ESE 20:19:47 25° ENE 20:24:08 10° NNE visible
12 Aug 5.0 21:56:29 18° SSW 21:59:53 35° W 22:04:43 10° NNW visible
